Weather History for KMNE - February, 2013

Change the Weather History Date:

Sunday, February 24, 2013

  Actual Average (KBAD) Record (KBAD)
Temperature  
Mean Temperature 53 °F -  
Max Temperature 68 °F 59 °F 79 °F (2011)
Min Temperature 38 °F 41 °F 24 °F (2015)
Degree Days  
Heating Degree Days 12    
Growing Degree Days 3 (Base 50)    
Moisture  
Dew Point 36 °F    
Average Humidity 57    
Maximum Humidity 91    
Minimum Humidity 29    
Precipitation  
Precipitation 0.00 in - - ()
Sea Level Pressure  
Sea Level Pressure 29.92 in    
Wind  
Wind Speed 5 mph (East)    
Max Wind Speed 12 mph    
Max Gust Speed 17 mph    
Visibility 10 miles    
Events      
Averages and records for this station are not official NWS values.
T = Trace of Precipitation, MM = Missing Value Source: NWS Daily Summary

Daily Weather History Graph

Daily Weather History Graph

Search for Another Location

Airport or City:

Trip Planner

Search our weather history database for the weather conditions in past years. The results will help you decide how hot, cold, wet, or windy it might be!

Date:

Astronomy

Feb. 24, 2013 Rise Set
Actual Time 6:46 AM CST 6:06 PM CST
Civil Twilight 6:21 AM CST 6:31 PM CST
Nautical Twilight 5:52 AM CST 7:00 PM CST
Astronomical Twilight 5:24 AM CST 7:28 PM CST
Moon 5:18 PM CST (2/24) 5:42 AM CST (2/24)
Length of Visible Light 12h 10m
Length of Day
11h 20m
Waxing Gibbous, 99% of the Moon is Illuminated
Feb 24
Waxing Gibbous
Feb 25
Full
Mar 4
Last Quarter
Mar 11
New
Mar 19
First Quarter

Hourly Weather History & Observations

Time (CST) Temp. Windchill Dew Point Humidity Pressure Visibility Wind Dir Wind Speed Gust Speed Precip Events Conditions
12:15 AM 38.3 °F - 35.1 °F 88% 30.00 in 10.0 mi Calm Calm - N/A   Clear
12:35 AM 38.7 °F - 36.1 °F 91% 29.99 in 10.0 mi Calm Calm - N/A   Clear
12:55 AM 38.8 °F - 36.0 °F 89% 29.99 in 10.0 mi Calm Calm - N/A   Clear
1:15 AM 38.8 °F 36.5 °F 36.1 °F 90% 29.99 in 10.0 mi East 3.5 mph - N/A   Clear
1:35 AM 41.4 °F 38.4 °F 37.4 °F 86% 29.99 in 10.0 mi East 4.6 mph - N/A   Clear
1:55 AM 41.0 °F 37.1 °F 37.0 °F 86% 29.99 in 10.0 mi ESE 5.8 mph - N/A   Clear
2:15 AM 40.5 °F 37.3 °F 36.9 °F 87% 29.99 in 10.0 mi ESE 4.6 mph - N/A   Clear
2:35 AM 40.8 °F 38.8 °F 36.9 °F 86% 29.99 in 10.0 mi East 3.5 mph - N/A   Clear
2:55 AM 40.5 °F 38.4 °F 36.7 °F 86% 29.98 in 10.0 mi East 3.5 mph - N/A   Clear
3:15 AM 40.1 °F - 36.7 °F 88% 29.99 in 10.0 mi Calm Calm - N/A   Clear
3:55 AM 40.1 °F 36.9 °F 36.5 °F 87% 29.98 in 10.0 mi East 4.6 mph - N/A   Clear
4:15 AM 40.5 °F 36.5 °F 36.5 °F 86% 29.98 in 10.0 mi East 5.8 mph - N/A   Clear
4:35 AM 40.6 °F 36.0 °F 36.7 °F 86% 29.98 in 10.0 mi East 6.9 mph - N/A   Clear
4:55 AM 40.6 °F 38.6 °F 36.7 °F 86% 29.99 in 10.0 mi East 3.5 mph - N/A   Clear
5:15 AM 40.5 °F 37.3 °F 36.5 °F 86% 29.99 in 10.0 mi East 4.6 mph - N/A   Clear
5:35 AM 40.6 °F 38.6 °F 36.5 °F 85% 30.00 in 10.0 mi East 3.5 mph - N/A   Clear
5:55 AM 40.6 °F 36.7 °F 36.3 °F 85% 30.00 in 10.0 mi East 5.8 mph - N/A   Clear
6:15 AM 40.3 °F 37.1 °F 36.0 °F 85% 29.99 in 10.0 mi East 4.6 mph - N/A   Clear
6:35 AM 40.1 °F 35.3 °F 36.1 °F 86% 30.00 in 10.0 mi East 6.9 mph - N/A   Clear
6:55 AM 39.7 °F 35.6 °F 36.0 °F 86% 30.00 in 10.0 mi East 5.8 mph - N/A   Clear
7:15 AM 40.1 °F 36.1 °F 36.0 °F 85% 30.01 in 10.0 mi East 5.8 mph - N/A   Clear
7:35 AM 41.7 °F 38.0 °F 35.6 °F 79% 30.02 in 10.0 mi East 5.8 mph - N/A   Clear
7:55 AM 43.2 °F 39.7 °F 35.8 °F 75% 30.03 in 10.0 mi East 5.8 mph - N/A   Clear
8:15 AM 44.6 °F 40.2 °F 35.6 °F 71% 30.02 in 10.0 mi ESE 8.1 mph - N/A   Clear
8:35 AM 46.6 °F - 35.6 °F 66% 30.02 in 10.0 mi East 8.1 mph - N/A   Clear
8:55 AM 48.2 °F - 34.3 °F 59% 30.02 in 10.0 mi East 9.2 mph 16.1 mph N/A   Clear
9:15 AM 50.2 °F - 33.8 °F 53% 30.02 in 10.0 mi East 6.9 mph - N/A   Clear
9:35 AM 52.9 °F - 33.4 °F 48% 30.02 in 10.0 mi East 9.2 mph - N/A   Clear
9:55 AM 55.2 °F - 32.9 °F 43% 30.03 in 10.0 mi ESE 8.1 mph - N/A   Clear
10:15 AM 55.9 °F - 32.0 °F 40% 30.02 in 10.0 mi East 6.9 mph - N/A   Clear
10:35 AM 58.1 °F - 31.8 °F 37% 30.01 in 10.0 mi East 9.2 mph - N/A   Clear
10:55 AM 58.3 °F - 32.0 °F 37% 30.00 in 10.0 mi East 8.1 mph - N/A   Clear
11:15 AM 59.2 °F - 32.5 °F 37% 30.00 in 10.0 mi East 8.1 mph - N/A   Clear
11:35 AM 61.2 °F - 33.3 °F 35% 29.99 in 10.0 mi East 8.1 mph - N/A   Clear
11:55 AM 61.7 °F - 33.4 °F 35% 29.98 in 10.0 mi ESE 3.5 mph - N/A   Clear
12:15 PM 63.0 °F - 34.5 °F 35% 29.97 in 10.0 mi ESE 5.8 mph - N/A   Clear
12:35 PM 63.3 °F - 33.8 °F 33% 29.96 in 10.0 mi SE 3.5 mph - N/A   Clear
12:55 PM 64.9 °F - 34.0 °F 32% 29.95 in 10.0 mi East 3.5 mph - N/A   Clear
1:15 PM 64.8 °F - 33.8 °F 32% 29.93 in 10.0 mi ESE 5.8 mph - N/A   Clear
1:35 PM 66.4 °F - 34.7 °F 31% 29.91 in 10.0 mi East 8.1 mph - N/A   Clear
1:55 PM 66.9 °F - 35.2 °F 31% 29.91 in 10.0 mi East 6.9 mph - N/A   Clear
2:15 PM 67.3 °F - 34.7 °F 30% 29.90 in 10.0 mi SE 5.8 mph - N/A   Clear
2:35 PM 67.5 °F - 35.1 °F 30% 29.89 in 10.0 mi East 8.1 mph - N/A   Clear
2:55 PM 68.2 °F - 35.1 °F 29% 29.87 in 10.0 mi East 8.1 mph - N/A   Clear
3:15 PM 68.0 °F - 35.1 °F 30% 29.85 in 10.0 mi ESE 9.2 mph - N/A   Clear
3:35 PM 68.2 °F - 36.7 °F 31% 29.85 in 10.0 mi East 8.1 mph - N/A   Clear
3:55 PM 68.0 °F - 36.9 °F 32% 29.85 in 10.0 mi East 11.5 mph - N/A   Clear
4:15 PM 67.3 °F - 36.5 °F 32% 29.85 in 10.0 mi East 8.1 mph 17.3 mph N/A   Clear
4:35 PM 66.9 °F - 36.3 °F 32% 29.84 in 10.0 mi East 8.1 mph 17.3 mph N/A   Clear
4:55 PM 66.6 °F - 36.5 °F 33% 29.83 in 10.0 mi ESE 10.4 mph - N/A   Clear
5:15 PM 65.5 °F - 36.7 °F 35% 29.83 in 10.0 mi East 10.4 mph - N/A   Clear
5:35 PM 63.7 °F - 36.9 °F 37% 29.82 in 10.0 mi East 6.9 mph - N/A   Clear
5:55 PM 62.1 °F - 37.6 °F 40% 29.82 in 10.0 mi East 5.8 mph - N/A   Clear
6:15 PM 60.3 °F - 37.4 °F 43% 29.84 in 10.0 mi East 4.6 mph - N/A   Clear
6:35 PM 58.5 °F - 37.9 °F 46% 29.84 in 10.0 mi ENE 3.5 mph - N/A   Clear
6:55 PM 56.7 °F - 38.8 °F 51% 29.84 in 10.0 mi ENE 3.5 mph - N/A   Clear
7:15 PM 56.7 °F - 38.3 °F 50% 29.85 in 10.0 mi Calm Calm - N/A   Clear
7:35 PM 55.4 °F - 38.3 °F 53% 29.84 in 10.0 mi East 3.5 mph - N/A   Clear
7:55 PM 54.9 °F - 38.3 °F 54% 29.82 in 10.0 mi NE 3.5 mph - N/A   Clear
8:15 PM 54.7 °F - 38.5 °F 54% 29.82 in 10.0 mi East 8.1 mph - N/A   Clear
8:35 PM 53.6 °F - 38.7 °F 57% 29.81 in 10.0 mi East 6.9 mph - N/A   Clear
8:55 PM 53.8 °F - 39.0 °F 57% 29.81 in 10.0 mi East 9.2 mph - N/A   Clear
9:15 PM 53.8 °F - 38.7 °F 57% 29.82 in 10.0 mi East 8.1 mph - N/A   Clear
9:35 PM 54.0 °F - 38.5 °F 56% 29.83 in 10.0 mi East 5.8 mph - N/A   Scattered Clouds
9:55 PM 53.8 °F - 38.5 °F 56% 29.83 in 10.0 mi East 5.8 mph - N/A   Mostly Cloudy
10:15 PM 53.6 °F - 38.7 °F 57% 29.81 in 10.0 mi ENE 3.5 mph - N/A   Mostly Cloudy
10:35 PM 53.8 °F - 38.5 °F 56% 29.80 in 10.0 mi ENE 4.6 mph - N/A   Overcast
10:55 PM 53.8 °F - 38.1 °F 55% 29.78 in 10.0 mi East 9.2 mph - N/A   Overcast
11:15 PM 54.7 °F - 37.8 °F 53% 29.77 in 10.0 mi East 9.2 mph 16.1 mph N/A   Overcast
11:35 PM 54.7 °F - 37.9 °F 53% 29.76 in 10.0 mi East 8.1 mph 16.1 mph N/A   Overcast
11:55 PM 54.5 °F - 38.1 °F 54% 29.76 in 10.0 mi East 5.8 mph - N/A   Overcast